Date String (YYYY-MM-DD hh:mm:ss) UTC,Instrument flags,absolute air pressure of the measurement (hPa),sample flow rate (lpm),inlet stack bypass flow (lpm),air temperature of the measurement (°C),ambient temperature measured by the external sensor (°C),aerosol sample conditioner tube jacket temperature (°C),OPC LED temperature (°C),internal box temperature (°C),relative humidity of the measurement (%),span deviation,mass concentration of particles derived from Lorenz-Mie calculation of OPC scattering (μg/m³),mass concentration of particles derived from Lorenz-Mie calculation of OPC scattering (μg/m³),mass concentration of particles derived from Lorenz-Mie calculation of OPC scattering (μg/m³)
DateTimeUTC,F1_M11,P_M11,Q1_M11,Q2_M11,T1_M11,T2_M11,T3_M11,T4_M11,T5_M11,U1_M11,ZSPAN_M11,X0_M11,X2_M11,X1_M11
2024-01-12 10:00:00,SystemResetWarning,0817.7,5.00,000.00,018.8,017.6,000.0,027.4,020.0,6.5,0000.0,0001.35,0000.65,0000.44
2024-01-12 10:01:00,SystemResetWarning,0817.8,5.01,000.00,018.9,017.9,000.0,027.4,020.3,6.5,0000.0,0001.33,0000.64,0000.44
2024-01-12 10:02:00,SystemResetWarning,0817.8,4.99,000.00,019.0,018.7,000.0,027.4,020.8,6.5,0000.0,0001.26,0000.61,0000.42
2024-01-12 10:03:00,SystemResetWarning,0817.7,5.00,000.00,019.2,019.4,000.0,027.4,021.1,6.5,0000.0,0001.12,0000.58,0000.39
2024-01-12 10:04:00,SystemResetWarning,0817.7,5.00,000.00,019.2,019.3,000.0,027.4,020.6,6.4,0000.0,0001.10,0000.55,0000.38
2024-01-12 10:05:00,SystemResetWarning,0817.6,4.99,000.00,019.1,019.0,000.0,027.4,020.1,6.5,0000.0,0001.14,0000.53,0000.36
2024-01-12 10:06:00,SystemResetWarning,0817.6,4.99,000.00,019.1,018.7,000.0,027.4,020.0,6.5,0000.0,0001.13,0000.54,0000.36
2024-01-12 10:07:00,SystemResetWarning,0817.6,5.01,000.00,019.0,018.4,000.0,027.4,020.0,6.5,0000.0,0001.09,0000.53,0000.36
2024-01-12 10:08:00,SystemResetWarning,0817.6,5.01,000.00,019.0,018.1,000.0,027.4,020.0,6.6,0000.0,0001.12,0000.54,0000.37
2024-01-12 10:09:00,SystemResetWarning,0817.7,5.00,000.00,018.9,017.9,000.0,027.4,020.0,6.6,0000.0,0001.22,0000.56,0000.38
2024-01-12 10:10:00,SystemResetWarning,0817.7,5.00,000.00,018.9,017.8,000.0,027.4,020.1,6.6,0000.0,0002.67,0000.56,0000.39
2024-01-12 10:11:00,SystemResetWarning,0817.7,5.00,000.00,019.0,018.3,000.0,027.4,020.6,6.5,0000.0,0002.72,0000.59,0000.41
2024-01-12 10:12:00,SystemResetWarning,0817.7,5.00,000.00,019.1,019.1,000.0,027.4,020.9,6.5,0000.0,0002.72,0000.60,0000.41
2024-01-12 10:13:00,SystemResetWarning,0817.6,5.00,000.00,019.2,019.0,000.0,027.4,020.5,6.4,0000.0,0002.69,0000.60,0000.43
2024-01-12 10:14:00,SystemResetWarning,0817.7,4.99,000.00,019.1,018.8,000.0,027.3,020.1,6.4,0000.0,0002.69,0000.61,0000.43
2024-01-12 10:15:00,SystemResetWarning,0817.7,5.01,000.00,019.0,018.5,000.0,027.4,020.0,6.4,0000.0,0002.72,0000.63,0000.44
2024-01-12 10:16:00,SystemResetWarning,0817.6,5.00,000.00,019.0,018.2,000.0,027.4,020.0,6.5,0000.0,0002.63,0000.63,0000.46
2024-01-12 10:17:00,SystemResetWarning,0817.6,5.00,000.00,019.0,018.0,000.0,027.4,020.0,6.5,0000.0,0002.57,0000.62,0000.46
2024-01-12 10:18:00,SystemResetWarning,0817.7,5.00,000.00,018.9,017.9,000.0,027.4,020.0,6.5,0000.0,0002.53,0000.60,0000.46
2024-01-12 10:19:00,SystemResetWarning,0817.6,5.00,000.00,018.9,018.0,000.0,027.4,020.3,6.5,0000.0,0002.50,0000.60,0000.47
2024-01-12 10:20:00,SystemResetWarning,0817.6,5.02,000.00,019.0,018.7,000.0,027.4,020.7,6.5,0000.0,0002.84,0000.60,0000.47
2024-01-12 10:21:00,SystemResetWarning,0817.6,4.98,000.00,019.2,019.1,000.0,027.4,020.7,6.4,0000.0,0002.29,0000.62,0000.48
2024-01-12 10:22:00,SystemResetWarning,0817.6,5.00,000.00,019.1,018.9,000.0,027.3,020.1,6.4,0000.0,0002.03,0000.61,0000.48
2024-01-12 10:23:00,SystemResetWarning,0817.6,5.01,000.00,019.0,018.6,000.0,027.4,020.0,6.4,0000.0,0002.12,0000.64,0000.49
2024-01-12 10:24:00,SystemResetWarning,0817.6,5.00,000.00,019.0,018.3,000.0,027.4,020.0,6.4,0000.0,0002.11,0000.63,0000.49
2024-01-12 10:25:00,SystemResetWarning,0817.6,5.00,000.00,018.9,018.0,000.0,027.4,020.0,6.4,0000.0,0002.11,0000.63,0000.50
2024-01-12 10:26:00,SystemResetWarning,0817.6,4.99,000.00,018.9,017.9,000.0,027.4,020.0,6.4,0000.0,0002.16,0000.65,0000.51
2024-01-12 10:27:00,SystemResetWarning,0817.6,5.00,000.00,018.9,017.8,000.0,027.4,020.1,6.4,0000.0,0002.22,0000.65,0000.51
2024-01-12 10:28:00,SystemResetWarning,0817.6,5.01,000.00,019.0,018.3,000.0,027.4,020.5,6.4,0000.0,0002.29,0000.67,0000.51
2024-01-12 10:29:00,SystemResetWarning,0817.6,5.01,000.00,019.1,019.1,000.0,027.4,020.9,6.3,0000.0,0002.46,0000.72,0000.52
2024-01-12 10:30:00,SystemResetWarning,0817.6,4.99,000.00,019.1,019.1,000.0,027.4,020.5,6.3,0000.0,0002.70,0000.77,0000.52
2024-01-12 10:31:00,SystemResetWarning,0817.6,4.99,000.00,019.1,018.9,000.0,027.3,020.1,6.3,0000.0,0002.40,0000.78,0000.53
2024-01-12 10:32:00,SystemResetWarning,0817.6,5.01,000.00,019.0,018.6,000.0,027.4,020.0,6.3,0000.0,0001.56,0000.77,0000.53
2024-01-12 10:33:00,SystemResetWarning,0817.6,5.00,000.00,019.0,018.3,000.0,027.4,020.0,6.3,0000.0,0001.51,0000.75,0000.53
2024-01-12 10:34:00,SystemResetWarning,0817.6,5.00,000.00,019.0,018.2,000.0,027.4,020.0,6.3,0000.0,0001.47,0000.72,0000.53
2024-01-12 10:35:00,SystemResetWarning,0817.6,5.00,000.00,018.9,018.0,000.0,027.4,020.0,6.3,0000.0,0001.55,0000.75,0000.54
2024-01-12 10:36:00,SystemResetWarning,0817.6,5.01,000.00,018.9,017.9,000.0,027.4,020.0,6.3,0000.0,0001.63,0000.79,0000.55
2024-01-12 10:37:00,SystemResetWarning,0817.6,5.00,000.00,018.9,017.8,000.0,027.4,020.0,6.3,0000.0,0001.65,0000.81,0000.55
2024-01-12 10:38:00,SystemResetWarning,0817.6,5.01,000.00,018.9,018.2,000.0,027.4,020.4,6.4,0000.0,0001.67,0000.84,0000.56
2024-01-12 10:39:00,SystemResetWarning,0817.6,5.00,000.00,019.1,018.9,000.0,027.3,020.8,6.3,0000.0,0001.69,0000.85,0000.56
2024-01-12 10:40:00,SystemResetWarning,0817.6,4.99,000.00,019.1,019.1,000.0,027.3,020.6,6.3,0000.0,0001.57,0000.83,0000.57
2024-01-12 10:41:00,SystemResetWarning,0817.6,4.99,000.00,019.1,018.9,000.0,027.3,020.1,6.4,0000.0,0001.36,0000.80,0000.56
2024-01-12 10:42:00,SystemResetWarning,0817.6,5.00,000.00,019.0,018.7,000.0,027.3,020.0,6.4,0000.0,0001.41,0000.82,0000.56
2024-01-12 10:43:00,SystemResetWarning,0817.7,5.01,000.00,019.0,018.4,000.0,027.4,020.0,6.4,0000.0,0001.57,0000.84,0000.56
2024-01-12 10:44:00,SystemResetWarning,0817.7,5.01,000.00,018.9,018.2,000.0,027.4,020.0,6.5,0000.0,0001.78,0000.86,0000.55
2024-01-12 10:45:00,SystemResetWarning,0817.6,5.01,000.00,018.9,018.0,000.0,027.4,020.0,6.5,0000.0,0001.76,0000.86,0000.55
2024-01-12 10:46:00,SystemResetWarning,0817.7,5.00,000.00,018.9,017.9,000.0,027.4,020.0,6.5,0000.0,0001.72,0000.85,0000.54
2024-01-12 10:47:00,SystemResetWarning,0817.6,5.01,000.00,018.9,018.2,000.0,027.4,020.4,6.5,0000.0,0001.72,0000.84,0000.53
2024-01-12 10:48:00,SystemResetWarning,0817.7,4.99,000.00,019.0,018.9,000.0,027.3,020.8,6.4,0000.0,0001.80,0000.83,0000.53
2024-01-12 10:49:00,SystemResetWarning,0817.6,4.99,000.00,019.1,019.1,000.0,027.3,020.6,6.4,0000.0,0001.83,0000.80,0000.52
2024-01-12 10:50:00,SystemResetWarning,0817.6,5.00,000.00,019.1,018.9,000.0,027.3,020.1,6.4,0000.0,0001.84,0000.79,0000.51
2024-01-12 10:51:00,SystemResetWarning,0817.6,5.00,000.00,019.0,018.6,000.0,027.3,020.0,6.4,0000.0,0001.88,0000.79,0000.50
2024-01-12 10:52:00,SystemResetWarning,0817.6,5.00,000.00,019.0,018.4,000.0,027.4,020.0,6.4,0000.0,0001.85,0000.78,0000.50
2024-01-12 10:53:00,SystemResetWarning,0817.7,5.00,000.00,018.9,018.2,000.0,027.4,020.0,6.4,0000.0,0001.73,0000.73,0000.49
2024-01-12 10:54:00,SystemResetWarning,0817.7,4.99,000.00,018.9,018.1,000.0,027.4,020.0,6.4,0000.0,0001.56,0000.70,0000.49
2024-01-12 10:55:00,SystemResetWarning,0817.8,5.00,000.00,018.9,017.9,000.0,027.4,020.0,6.4,0000.0,0001.37,0000.70,0000.49
2024-01-12 10:56:00,SystemResetWarning,0817.8,5.01,000.00,018.9,018.1,000.0,027.4,020.4,6.4,0000.0,0001.46,0000.70,0000.48
2024-01-12 10:57:00,SystemResetWarning,0817.8,5.01,000.00,019.0,018.9,000.0,027.3,020.8,6.4,0000.0,0001.40,0000.68,0000.48
2024-01-12 10:58:00,SystemResetWarning,0817.8,4.99,000.00,019.1,019.1,000.0,027.3,020.6,6.4,0000.0,0001.31,0000.64,0000.47
2024-01-12 10:59:00,SystemResetWarning,0817.7,4.99,000.00,019.1,018.9,000.0,027.3,020.1,6.4,0000.0,0001.20,0000.62,0000.46
